SAR-LUPE 3 1 32283U 07053A 25295.16989741 .00105874 00000+0 72448-3 0 9993 2 32283 98.1646 102.5553 0009659 247.1832 112.8410 15.74392063 3067 SAPPHIRE 1 39088U 13009C 25295.14752648 .00000288 00000+0 11574-3 0 9999 2 39088 98.4172 115.3707 0010259 234.6518 125.3709 14.35130130662430 PRAETORIAN SDA_602 1 65565U 25203A 25295.18588524 .00000089 00000+0 68280-4 0 9997 2 65565 81.3031 231.2548 0007196 113.2600 246.9315 13.84614208 5761 PRAETORIAN SDA_603 1 65566U 25203B 25295.16362723 .00000111 00000+0 87430-4 0 9991 2 65566 81.3038 231.2307 0011094 114.5458 245.6857 13.85357790 5767 PRAETORIAN SDA_604 1 65567U 25203C 25295.18709931 .00000101 00000+0 79346-4 0 9996 2 65567 81.3058 231.2687 0007399 116.4546 243.7371 13.84573888 5760 PRAETORIAN SDA_605 1 65568U 25203D 25295.16876924 .00000073 00000+0 53850-4 0 9992 2 65568 81.3025 231.2283 0010288 113.5534 246.6705 13.85185182 5763 PRAETORIAN SDA_606 1 65569U 25203E 25295.18355891 .00000072 00000+0 53679-4 0 9998 2 65569 81.3054 231.2627 0007866 114.2118 245.9862 13.84691616 5761 PRAETORIAN SDA_607 1 65570U 25203F 25295.16756316 .00000095 00000+0 72830-4 0 9990 2 65570 81.3041 231.2390 0010466 113.9373 246.2881 13.85226097 5768 PRAETORIAN SDA_608 1 65571U 25203G 25295.18834300 .00000075 00000+0 55939-4 0 9992 2 65571 81.3007 231.2462 0007245 117.4345 242.7549 13.84532175 5768 PRAETORIAN SDA_609 1 65572U 25203H 25295.18124049 .00000080 00000+0 60721-4 0 9996 2 65572 81.3050 231.2572 0008121 112.0928 248.1092 13.84769110 5765 PRAETORIAN SDA_610 1 65573U 25203J 25295.18477947 .00000087 00000+0 66414-4 0 9997 2 65573 81.3006 231.2416 0007707 114.9839 245.2119 13.84651428 5765 PRAETORIAN SDA_611 1 65574U 25203K 25295.19058100 .00000079 00000+0 59506-4 0 9990 2 65574 81.3014 231.2524 0007022 119.8925 240.2931 13.84457863 5769 PRAETORIAN SDA_612 1 65575U 25203L 25295.16995775 .00000093 00000+0 71210-4 0 9998 2 65575 81.3041 231.2419 0010111 113.0194 247.2031 13.85146434 5768 PRAETORIAN SDA_613 1 65576U 25203M 25295.18244020 .00000074 00000+0 55326-4 0 9990 2 65576 81.3009 231.2400 0008011 113.3199 246.8801 13.84728902 5762 PRAETORIAN SDA_614 1 65577U 25203N 25295.18025508 .00000082 00000+0 62543-4 0 9997 2 65577 81.3022 231.2437 0008196 110.9611 249.2424 13.84801982 5773 PRAETORIAN SDA_615 1 65578U 25203P 25295.16609855 .00000114 00000+0 89862-4 0 9998 2 65578 81.3026 231.2251 0010679 114.6543 245.5727 13.85275992 5767 PRAETORIAN SDA_616 1 65579U 25203Q 25295.18946709 .00000077 00000+0 58262-4 0 9991 2 65579 81.3054 231.2697 0007118 118.4176 241.7699 13.84494604 5769 PRAETORIAN SDA_617 1 65580U 25203R 25295.17246345 .00000070 00000+0 51656-4 0 9994 2 65580 81.3040 231.2449 0009736 112.0737 248.1455 13.85062121 5769 PRAETORIAN SDA_618 1 65581U 25203S 25295.16485221 .00000076 00000+0 56308-4 0 9997 2 65581 81.3026 231.2241 0010898 114.4660 245.7635 13.85317297 5766 PRAETORIAN SDA_619 1 65582U 25203T 25295.17381816 .00000072 00000+0 52711-4 0 9994 2 65582 81.3042 231.2461 0009522 111.9473 248.2697 13.85016881 6396 PRAETORIAN SDA_620 1 65583U 25203U 25295.17506088 .00000086 00000+0 65585-4 0 9993 2 65583 81.3029 231.2397 0009333 111.7477 248.4674 13.84975804 5767 PRAETORIAN SDA_621 1 65584U 25203V 25295.17118097 .00000079 00000+0 58849-4 0 9990 2 65584 81.3026 231.2315 0009951 112.4478 247.7734 13.85105143 5761 PRAETORIAN SDA_601 1 65585U 25203W 25295.19185260 .00000089 00000+0 68510-4 0 9996 2 65585 81.3041 231.2662 0006958 121.5320 238.6517 13.84415595 5767